This is the latest recevied weather packets stored in our database for station/object KG7FOQ-13. If no packets are shown the sender has not sent any weather packets the latest 10 day(s).
| Time | Temp. | Humidity | Pressure | Rain* | Wind** | Luminosity | Snow |
|---|---|---|---|---|---|---|---|
| 1777909784 | 17.78° C | 36% | 1008.8 hPa | 0 mm | - | - | - |
| 1777908883 | 17.78° C | 38% | 1008.8 hPa | 0 mm | - | - | - |
| 1777908582 | 17.78° C | 37% | 1008.9 hPa | 0 mm | - | - | - |
| 1777908282 | 17.22° C | 37% | 1008.9 hPa | 0 mm | - | - | - |
| 1777907981 | 17.22° C | 38% | 1009 hPa | 0 mm | - | - | - |
| 1777907681 | 17.22° C | 37% | 1009 hPa | 0 mm | - | - | - |
| 1777907379 | 16.67° C | 38% | 1009 hPa | 0 mm | - | - | - |
| 1777907079 | 16.67° C | 39% | 1009 hPa | 0 mm | - | - | - |
| 1777906778 | 16.67° C | 38% | 1009 hPa | 0 mm | - | - | - |
| 1777906176 | 16.67° C | 38% | 1009 hPa | 0 mm | - | - | - |
| 1777905876 | 16.67° C | 38% | 1009.1 hPa | 0 mm | - | - | - |
| 1777905575 | 16.67° C | 40% | 1009.1 hPa | 0 mm | - | - | - |
| 1777905274 | 16.11° C | 39% | 1009.1 hPa | 0 mm | - | - | - |
| 1777904974 | 16.11° C | 40% | 1009.1 hPa | 0 mm | - | - | - |
| 1777904674 | 16.11° C | 40% | 1009 hPa | 0 mm | - | - | - |
| 1777904375 | 15.56° C | 40% | 1009 hPa | 0 mm | - | - | - |
| 1777903471 | 15° C | 44% | 1009 hPa | 0 mm | - | - | - |
| 1777903170 | 13.89° C | 45% | 1009 hPa | 0 mm | - | - | - |
| 1777902869 | 13.33° C | 46% | 1009 hPa | 0 mm | - | - | - |
| 1777902569 | 12.22° C | 50% | 1009 hPa | 0 mm | - | - | - |
| 1777902268 | 11.67° C | 54% | 1008.9 hPa | 0 mm | - | - | - |
| 1777901968 | 11.11° C | 55% | 1008.8 hPa | 0 mm | - | - | - |
| 1777901667 | 11.11° C | 53% | 1008.8 hPa | 0 mm | - | - | - |
| 1777901367 | 10.56° C | 52% | 1008.8 hPa | 0 mm | - | - | - |
| 1777900765 | 10.56° C | 53% | 1008.8 hPa | 0 mm | - | - | - |
* Rain latest hour (hover to see other rain measurements)
** Current wind speed in m/s (hover to see current wind gust speed)